[[{"header":{"parameterUnit":"m.s-1","parameterCategory":1,"la1":30.2991,"la2":30.254,"lo1":-89.0895,"lo2":-89.0444,"dy":0.0017,"dx":0.0017,"nx":28,"ny":28,"refTime":"2024-05-16T03:00:00:Z","depth":0,"parameterNumber":2,"parameterNumberName":"U-component_of_WINDS"},"data":[0,0,0,0,0,0,0,0,0,0,0,0,0,0,0,0,0,0,0,0,0,0,0,0,0,0,0,0,0,0,0,0,0,0,0,0,0,0,0,0,0,0,0,0,0,0,0,0,0,0,0,0,0,0,0,0,0,0,0.4335,0.4335,0,0.4311,0.4311,0.4311,0.4292,0.4292,0.4291,0.4291,0.4268,0.4267,0.4267,0,0,0,0,0,0,0,0,0,0,0,0,0,0.4365,0.4364,0.4335,0.4335,0.4334,0.4311,0.4311,0.4311,0.4292,0.4292,0.4291,0.4291,0.4268,0.4267,0.4267,0,0,0,0,0,0,0,0,0,0,0,0,0,0.4348,0.4364,0.4335,0.4322,0.4321,0.4311,0.4311,0.4311,0.4292,0.4292,0.4291,0.4291,0.4268,0.4267,0.4267,0.4268,0,0,0.4264,0.4264,0,0,0,0,0,0,0,0,0.4349,0.4347,0.4324,0.4323,0.4322,0.4304,0.4313,0.4296,0.4292,0.4303,0.4291,0.4291,0.428,0.4278,0.4275,0.4267,0.4266,0.4264,0.4264,0.4264,0.4264,0,0,0,0,0,0,0,0.435,0.4347,0.4326,0.4324,0.4322,0.4318,0.4315,0.431,0.4293,0.4302,0.4301,0.4298,0.4279,0.4275,0.4274,0.4266,0.4264,0.4264,0.4263,0.4263,0.4259,0.4259,0,0,0,0,0,0,0.4353,0.4349,0.4326,0.4325,0.4335,0.4318,0.4315,0.431,0.4293,0.4291,0.4298,0.4297,0.4277,0.4275,0.4273,0.4274,0.4264,0.4263,0.4263,0.4259,0.4259,0.4259,0,0,0,0,0,0,0.4354,0.4351,0.4327,0.4336,0.4333,0.4317,0.4313,0.431,0.4306,0.4291,0.4288,0.4297,0.4276,0.4274,0.427,0.4273,0.4263,0.4262,0.4258,0.4259,0.4259,0.4276,0,0,0,0,0,0,0.4355,0.4351,0.4352,0.4336,0.4333,0.4324,0.4313,0.431,0.4305,0.4303,0.4289,0.4286,0.4276,0.4271,0.4269,0.4272,0.4262,0.4258,0.4258,0.4259,0.4275,0.4277,0.4279,0,0,0,0,0,0.4356,0.4357,0.4352,0.4349,0.4332,0.4324,0.4322,0.431,0.4305,0.4305,0.4296,0.4287,0.4273,0.427,0.4268,0.4271,0.4258,0.4258,0.4259,0.4275,0.4277,0.4279,0,0,0,0,0,0,0.4373,0.4355,0.4349,0.4345,0.4337,0.4321,0.4321,0.4313,0.4305,0.4304,0.429,0.4287,0.4284,0.4277,0.4275,0.4272,0.4264,0.4264,0.4277,0.4279,0.4281,0.4283,0.4261,0,0,0,0,0,0.4377,0.4372,0.4356,0.4355,0.4351,0.4337,0.4333,0.4324,0.4315,0.4311,0.4301,0.4292,0.4286,0.4282,0.4275,0.4274,0.4271,0.4275,0.4277,0.4279,0.4279,0.4279,0.4281,0.4261,0.4261,0.4261,0,0,0.4384,0.4374,0.4371,0.4358,0.435,0.4346,0.4334,0.4329,0.4325,0.431,0.4305,0.4298,0.4287,0.4285,0.4283,0.4279,0.4284,0.4279,0.4281,0.428,0.428,0.4281,0.4283,0.4262,0.4262,0.4262,0,0,0.4395,0.4386,0.4385,0.4377,0.4365,0.4356,0.4356,0.4342,0.4336,0.4331,0.432,0.4315,0.4305,0.4298,0.4293,0.4302,0.4293,0.43,0.4309,0.4309,0.4311,0.4312,0.4316,0.4317,0.43,0.43,0.43,0,0.4406,0.4398,0.4385,0.4381,0.4376,0.4362,0.436,0.4353,0.434,0.4337,0.4332,0.4319,0.4311,0.4307,0.4309,0.4305,0.4305,0.4301,0.4311,0.4313,0.4314,0.4317,0.4319,0.4301,0.4301,0.4301,0.4301,0,0.4412,0.4406,0.4407,0.4394,0.4389,0.4386,0.4373,0.437,0.4362,0.4353,0.4349,0.4339,0.433,0.4328,0.432,0.4323,0.4321,0.4314,0.4306,0.4317,0.432,0.4321,0.4303,0.4302,0.4302,0.4302,0,0,0.4433,0.4414,0.4414,0.4409,0.4395,0.4391,0.4388,0.4379,0.4377,0.4368,0.4366,0.4357,0.4351,0.4345,0.4336,0.4336,0.4345,0.4329,0.4329,0.4333,0.4348,0.4354,0.4356,0.4339,0.4339,0.434,0.435,0,0.4442,0.4436,0.4424,0.4422,0.4417,0.4404,0.4401,0.4393,0.4385,0.438,0.4371,0.4366,0.4357,0.4354,0.4353,0.4344,0.4348,0.4343,0.4337,0.4337,0.4341,0.4357,0.4363,0.4373,0.4351,0.4351,0.4351,0,0.4452,0.4444,0.4441,0.4429,0.4426,0.4424,0.4416,0.4411,0.4401,0.4396,0.439,0.438,0.4377,0.4369,0.4365,0.4362,0.4359,0.4354,0.4354,0.4353,0.4345,0.4358,0.4376,0.4378,0.4353,0.4352,0.4352,0,0.4468,0.4457,0.4454,0.445,0.4435,0.4434,0.4428,0.4418,0.4413,0.4406,0.4403,0.4396,0.4392,0.4386,0.4375,0.4371,0.4372,0.4364,0.4368,0.4368,0.4369,0.437,0.4388,0.4367,0.4366,0.4366,0.4366,0,0.448,0.4479,0.4462,0.446,0.4459,0.4446,0.4445,0.4437,0.4428,0.4425,0.4413,0.4411,0.4396,0.4392,0.4383,0.4381,0.4379,0.4375,0.4373,0.4376,0.4377,0.4374,0.4374,0.4367,0.4367,0.4367,0.4367,0,0.4498,0.4487,0.4483,0.4469,0.4465,0.4465,0.4453,0.4451,0.4443,0.4439,0.4437,0.4424,0.4419,0.4407,0.4398,0.4393,0.4393,0.4389,0.4396,0.4395,0.44,0.44,0.4418,0.442,0.4397,0.4397,0.4397,0,0.4507,0.4506,0.4492,0.4489,0.4483,0.4478,0.4474,0.4461,0.4458,0.4447,0.4446,0.444,0.4434,0.4426,0.4416,0.4409,0.4405,0.4412,0.4404,0.4408,0.4406,0.4407,0.4407,0.4414,0.4414,0.4414,0.4415,0,0.4523,0.4518,0.4512,0.4505,0.45,0.4494,0.4486,0.4485,0.447,0.4467,0.4461,0.4457,0.4448,0.4442,0.4434,0.4428,0.4419,0.4417,0.4418,0.4422,0.4427,0.4425,0.4402,0.4417,0.4417,0.4416,0.4416,0.4416,0.4537,0.4536,0.4526,0.4521,0.4514,0.4508,0.4506,0.4497,0.4492,0.4484,0.4476,0.4472,0.4463,0.4451,0.4445,0.4442,0.4437,0.4438,0.4439,0.4439,0.4441,0.4427,0.444,0.444,0.444,0.444,0.444,0,0.4554,0.4547,0.4542,0.4532,0.4528,0.452,0.4512,0.4509,0.4505,0.4497,0.4492,0.4486,0.448,0.4469,0.4463,0.4462,0.4458,0.4461,0.4461,0.446,0.4445,0.4445,0.4464,0.4464,0.4464,0.4464,0.4464,0.4464,0.4562,0.4559,0.4553,0.4547,0.4541,0.4536,0.4532,0.4526,0.452,0.4514,0.4509,0.4502,0.4494,0.4486,0.4481,0.4478,0.4477,0.4481,0.4477,0.4463,0.4461,0.4459,0.4459,0.448,0.448,0.4492,0.4492,0.4492]},{"header":{"parameterUnit":"m.s-1","parameterCategory":1,"la1":30.2991,"la2":30.254,"lo1":-89.0895,"lo2":-89.0444,"dy":0.0017,"dx":0.0017,"nx":28,"ny":28,"refTime":"2024-05-16T03:00:00:Z","depth":0,"parameterNumber":3,"parameterNumberName":"V-component_of_WINDS"},"data":[0,0,0,0,0,0,0,0,0,0,0,0,0,0,0,0,0,0,0,0,0,0,0,0,0,0,0,0,0,0,0,0,0,0,0,0,0,0,0,0,0,0,0,0,0,0,0,0,0,0,0,0,0,0,0,0,0,0,6.9018,6.9018,0,6.9061,6.9062,6.9062,6.9047,6.9046,6.9045,6.9044,6.9086,6.9088,6.909,0,0,0,0,0,0,0,0,0,0,0,0,0,6.892,6.8922,6.9018,6.9018,6.9019,6.9061,6.9062,6.9062,6.9047,6.9046,6.9045,6.9044,6.9085,6.9088,6.909,0,0,0,0,0,0,0,0,0,0,0,0,0,6.8963,6.8923,6.9018,6.9016,6.9017,6.9061,6.9062,6.9062,6.9047,6.9046,6.9044,6.9043,6.9084,6.9087,6.909,6.9137,0,0,6.9099,6.9101,0,0,0,0,0,0,0,0,6.8961,6.8967,6.9016,6.9017,6.9017,6.9047,6.9043,6.9087,6.9048,6.9036,6.9044,6.9042,6.9074,6.9078,6.9089,6.9139,6.9141,6.91,6.9101,6.9103,6.9104,0,0,0,0,0,0,0,6.8958,6.8965,6.9035,6.9017,6.9017,6.9013,6.9018,6.9051,6.9062,6.9037,6.9036,6.9041,6.9074,6.9086,6.909,6.9142,6.91,6.9102,6.9104,6.9105,6.9235,6.9237,0,0,0,0,0,0,6.8955,6.8962,6.9033,6.9036,6.8985,6.9016,6.9021,6.9039,6.9062,6.9064,6.9042,6.904,6.9082,6.9086,6.9091,6.9149,6.9103,6.9106,6.9107,6.9233,6.9235,6.9237,0,0,0,0,0,0,6.8953,6.8961,6.9032,6.8999,6.9008,6.9019,6.9039,6.9041,6.9053,6.9066,6.9068,6.9053,6.9081,6.9087,6.9127,6.915,6.9107,6.911,6.9231,6.9234,6.9236,6.9265,0,0,0,0,0,0,6.895,6.8961,6.8979,6.9,6.9009,6.9067,6.9041,6.9042,6.9058,6.9056,6.9076,6.9078,6.908,6.9122,6.913,6.9154,6.9112,6.9229,6.9233,6.9235,6.9262,6.9268,6.9273,0,0,0,0,0,6.8947,6.8984,6.898,6.8988,6.9033,6.9068,6.9074,6.9076,6.906,6.9079,6.9088,6.9078,6.9147,6.9126,6.9135,6.916,6.9228,6.9232,6.9235,6.9259,6.9267,6.9273,0,0,0,0,0,0,6.8964,6.8987,6.8982,6.9028,6.9047,6.9066,6.9089,6.9083,6.9106,6.9103,6.9103,6.9108,6.9149,6.9158,6.9136,6.9208,6.9185,6.919,6.92,6.9208,6.9213,6.921,6.9114,0,0,0,0,0,6.8974,6.9002,6.9019,6.9058,6.9068,6.9077,6.9092,6.9092,6.9111,6.9119,6.913,6.9149,6.9175,6.9191,6.9216,6.9263,6.9268,6.9285,6.929,6.9295,6.93,6.9327,6.9335,6.9249,6.9249,6.9249,0,0,6.8993,6.9009,6.9026,6.9062,6.9076,6.9105,6.9083,6.9114,6.9135,6.9123,6.9162,6.9171,6.9192,6.9236,6.9256,6.9245,6.9325,6.93,6.9303,6.9306,6.9332,6.934,6.9347,6.9252,6.9251,6.9251,0,0,6.9043,6.9058,6.9092,6.9108,6.9131,6.9137,6.9145,6.9166,6.9172,6.9211,6.9203,6.9228,6.9272,6.9288,6.9302,6.936,6.9352,6.9368,6.9398,6.9424,6.9431,6.9437,6.9459,6.9467,6.9372,6.9372,6.9373,0,6.9064,6.9108,6.911,6.9143,6.9159,6.9151,6.9186,6.9201,6.923,6.9241,6.9228,6.9285,6.9298,6.9347,6.9361,6.9372,6.9382,6.9365,6.943,6.9436,6.9442,6.9463,6.9471,6.9374,6.9374,6.9374,6.9374,0,6.9133,6.9163,6.9188,6.9219,6.9238,6.9271,6.9279,6.9298,6.9297,6.9304,6.9345,6.9361,6.9389,6.94,6.9398,6.9449,6.9442,6.943,6.9407,6.9452,6.9472,6.948,6.9377,6.9376,6.9376,6.9375,0,0,6.9195,6.9228,6.9237,6.9251,6.9277,6.93,6.9333,6.9362,6.9379,6.94,6.9428,6.9467,6.9457,6.9472,6.9472,6.9496,6.9543,6.9481,6.9481,6.9493,6.9601,6.9611,6.962,6.9538,6.9539,6.954,6.96,0,6.9248,6.9308,6.9312,6.9366,6.9395,6.9388,6.9417,6.9436,6.9444,6.9469,6.9478,6.9506,6.949,6.9499,6.9522,6.9532,6.9564,6.9528,6.9564,6.9566,6.956,6.963,6.964,6.9695,6.9607,6.9609,6.9609,0,6.9318,6.9343,6.94,6.9423,6.9435,6.9462,6.949,6.9514,6.9535,6.9539,6.9558,6.9555,6.959,6.9566,6.9614,6.9589,6.9604,6.9612,6.9614,6.9618,6.9591,6.9637,6.9712,6.9721,6.9621,6.962,6.962,0,6.9359,6.9406,6.9447,6.9459,6.9487,6.9506,6.9518,6.9538,6.9556,6.958,6.9592,6.9619,6.9635,6.9656,6.9661,6.9643,6.971,6.9685,6.9715,6.9715,6.9729,6.9728,6.981,6.9738,6.9738,6.9738,6.9737,0,6.9418,6.9453,6.9466,6.9491,6.9531,6.9536,6.9575,6.9586,6.9604,6.9632,6.9627,6.9653,6.9658,6.9684,6.9688,6.9729,6.9735,6.974,6.9741,6.9741,6.9741,6.9751,6.9748,6.974,6.9739,6.9739,6.9738,0,6.947,6.948,6.9525,6.9548,6.9555,6.9584,6.9603,6.9628,6.9636,6.9671,6.9679,6.9692,6.9723,6.9731,6.9767,6.977,6.9818,6.9815,6.9812,6.9812,6.9841,6.9839,6.9933,6.9946,6.9864,6.9865,6.9866,0,6.9508,6.9536,6.9563,6.9581,6.9595,6.9625,6.9644,6.9649,6.9669,6.9696,6.9718,6.9749,6.9774,6.9825,6.9837,6.9866,6.9864,6.9895,6.9868,6.9868,6.9866,6.9865,6.9868,6.99,6.9901,6.9902,6.9902,0,6.9574,6.9578,6.9606,6.9636,6.9659,6.9683,6.9705,6.972,6.9729,6.9752,6.9784,6.9804,6.9843,6.9875,6.9904,6.9916,6.9911,6.9911,6.9919,6.992,6.9918,6.9921,6.9827,6.9908,6.9908,6.9907,6.9907,6.9907,6.9621,6.9646,6.967,6.9702,6.9719,6.9741,6.9766,6.9778,6.9806,6.9839,6.984,6.9876,6.9898,6.9937,6.9952,6.998,6.997,6.9982,6.9986,6.9989,6.9992,6.9913,6.9985,6.9985,6.9985,6.9985,6.9984,0,6.9689,6.9704,6.9733,6.9766,6.9791,6.9785,6.981,6.9831,6.9863,6.9885,6.991,6.9949,6.998,6.9996,7.0026,7.0046,7.0045,7.0054,7.0053,7.0057,6.9998,6.9988,7.0055,7.0055,7.0055,7.0055,7.0055,7.0055,6.9727,6.9769,6.9776,6.9828,6.9843,6.9879,6.9894,6.9914,6.9932,6.9976,7.0002,7.0012,7.0032,7.0064,7.0092,7.0096,7.0108,7.0119,7.0122,7.0067,7.006,7.0053,7.0044,7.0122,7.0122,7.0178,7.0179,7.0179]}]]